Year,Month,Day,Hour,Minute,Value (Times are PST for temperature in C)
2012,09,16,00,00,16.60
2012,09,16,00,01,16.60
2012,09,16,00,02,16.60
2012,09,16,00,03,16.60
2012,09,16,00,04,16.50
2012,09,16,00,05,16.50
2012,09,16,00,06,16.50
2012,09,16,00,07,16.50
2012,09,16,00,08,16.50
2012,09,16,00,09,16.40
2012,09,16,00,10,16.40
2012,09,16,00,11,16.40
2012,09,16,00,12,16.40
2012,09,16,00,13,16.40
2012,09,16,00,14,16.40
2012,09,16,00,15,16.40
2012,09,16,00,16,16.40
2012,09,16,00,17,16.30
2012,09,16,00,18,16.30
2012,09,16,00,19,16.30
2012,09,16,00,20,16.30
2012,09,16,00,21,16.30
2012,09,16,00,22,16.30
2012,09,16,00,23,16.30
2012,09,16,00,24,16.30
2012,09,16,00,25,16.30
2012,09,16,00,26,16.30
2012,09,16,00,27,16.30
2012,09,16,00,28,16.30
2012,09,16,00,29,16.30
2012,09,16,00,30,16.20
2012,09,16,00,31,16.20
2012,09,16,00,32,16.10
2012,09,16,00,33,16.10
2012,09,16,00,34,16.00
2012,09,16,00,35,16.00
2012,09,16,00,36,15.90
2012,09,16,00,37,15.90
2012,09,16,00,38,15.80
2012,09,16,00,39,15.80
2012,09,16,00,40,15.70
2012,09,16,00,41,15.70
2012,09,16,00,42,15.60
2012,09,16,00,43,15.60
2012,09,16,00,44,15.60
2012,09,16,00,45,15.60
2012,09,16,00,46,15.60
2012,09,16,00,47,15.50
2012,09,16,00,48,15.50
2012,09,16,00,49,15.50
2012,09,16,00,50,15.50
2012,09,16,00,51,15.50
2012,09,16,00,52,15.50
2012,09,16,00,53,15.50
2012,09,16,00,54,15.50
2012,09,16,00,55,15.50
2012,09,16,00,56,15.60
2012,09,16,00,57,15.60
2012,09,16,00,58,15.60
2012,09,16,00,59,15.70
2012,09,16,01,00,15.70
2012,09,16,01,01,15.70
2012,09,16,01,02,15.80
2012,09,16,01,03,15.80
2012,09,16,01,04,15.80
2012,09,16,01,05,15.80
2012,09,16,01,06,15.90
2012,09,16,01,07,15.90
2012,09,16,01,08,15.90
2012,09,16,01,09,15.90
2012,09,16,01,10,15.90
2012,09,16,01,11,15.90
2012,09,16,01,12,15.90
2012,09,16,01,13,15.90
2012,09,16,01,14,15.90
2012,09,16,01,15,16.00
2012,09,16,01,16,16.00
2012,09,16,01,17,16.10
2012,09,16,01,18,16.10
2012,09,16,01,19,16.10
2012,09,16,01,20,16.20
2012,09,16,01,21,16.20
2012,09,16,01,22,16.20
2012,09,16,01,23,16.20
2012,09,16,01,24,16.20
2012,09,16,01,25,16.20
2012,09,16,01,26,16.20
2012,09,16,01,27,16.20
2012,09,16,01,28,16.20
2012,09,16,01,29,16.20
2012,09,16,01,30,16.30
2012,09,16,01,31,16.30
2012,09,16,01,32,16.30
2012,09,16,01,33,16.30
2012,09,16,01,34,16.30
2012,09,16,01,35,16.30
2012,09,16,01,36,16.30
2012,09,16,01,37,16.30
2012,09,16,01,38,16.30
2012,09,16,01,39,16.30
2012,09,16,01,40,16.30
2012,09,16,01,41,16.30
2012,09,16,01,42,16.30
2012,09,16,01,43,16.30
2012,09,16,01,44,16.20
2012,09,16,01,45,16.20
2012,09,16,01,46,16.20
2012,09,16,01,47,16.10
2012,09,16,01,48,16.10
2012,09,16,01,49,16.00
2012,09,16,01,50,16.00
2012,09,16,01,51,16.00
2012,09,16,01,52,15.90
2012,09,16,01,53,15.90
2012,09,16,01,54,15.90
2012,09,16,01,55,15.90
2012,09,16,01,56,15.90
2012,09,16,01,57,15.90
2012,09,16,01,58,15.80
2012,09,16,01,59,15.80
2012,09,16,02,00,15.80
2012,09,16,02,01,15.80
2012,09,16,02,02,15.70
2012,09,16,02,03,15.70
2012,09,16,02,04,15.70
2012,09,16,02,05,15.70
2012,09,16,02,06,15.60
2012,09,16,02,07,15.60
2012,09,16,02,08,15.60
2012,09,16,02,09,15.50
2012,09,16,02,10,15.50
2012,09,16,02,11,15.50
2012,09,16,02,12,15.40
2012,09,16,02,13,15.40
2012,09,16,02,14,15.40
2012,09,16,02,15,15.40
2012,09,16,02,16,15.40
2012,09,16,02,17,15.40
2012,09,16,02,18,15.40
2012,09,16,02,19,15.40
2012,09,16,02,20,15.50
2012,09,16,02,21,15.60
2012,09,16,02,22,15.70
2012,09,16,02,23,15.70
2012,09,16,02,24,15.80
2012,09,16,02,25,15.80
2012,09,16,02,26,15.90
2012,09,16,02,27,15.90
2012,09,16,02,28,15.90
2012,09,16,02,29,15.90
2012,09,16,02,30,15.90
2012,09,16,02,31,16.00
2012,09,16,02,32,16.00
2012,09,16,02,33,16.00
2012,09,16,02,34,16.00
2012,09,16,02,35,16.00
2012,09,16,02,36,16.00
2012,09,16,02,37,16.00
2012,09,16,02,38,15.90
2012,09,16,02,39,15.90
2012,09,16,02,40,15.90
2012,09,16,02,41,15.90
2012,09,16,02,42,15.80
2012,09,16,02,43,15.80
2012,09,16,02,44,15.80
2012,09,16,02,45,15.80
2012,09,16,02,46,15.80
2012,09,16,02,47,15.80
2012,09,16,02,48,15.80
2012,09,16,02,49,15.70
2012,09,16,02,50,15.70
2012,09,16,02,51,15.70
2012,09,16,02,52,15.70
2012,09,16,02,53,15.70
2012,09,16,02,54,15.80
2012,09,16,02,55,15.80
2012,09,16,02,56,15.80
2012,09,16,02,57,15.80
2012,09,16,02,58,15.80
2012,09,16,02,59,15.80
2012,09,16,03,00,15.80
2012,09,16,03,01,15.80
2012,09,16,03,02,15.80
2012,09,16,03,03,15.80
2012,09,16,03,04,15.80
2012,09,16,03,05,15.80
2012,09,16,03,06,15.80
2012,09,16,03,07,15.90
2012,09,16,03,08,15.90
2012,09,16,03,09,15.90
2012,09,16,03,10,15.90
2012,09,16,03,11,15.90
2012,09,16,03,12,15.90
2012,09,16,03,13,16.00
2012,09,16,03,14,15.90
2012,09,16,03,15,15.90
2012,09,16,03,16,15.90
2012,09,16,03,17,15.90
2012,09,16,03,18,15.90
2012,09,16,03,19,15.90
2012,09,16,03,20,15.80
2012,09,16,03,21,15.80
2012,09,16,03,22,15.80
2012,09,16,03,23,15.80
2012,09,16,03,24,15.70
2012,09,16,03,25,15.70
2012,09,16,03,26,15.70
2012,09,16,03,27,15.70
2012,09,16,03,28,15.70
2012,09,16,03,29,15.70
2012,09,16,03,30,15.70
2012,09,16,03,31,15.60
2012,09,16,03,32,15.60
2012,09,16,03,33,15.60
2012,09,16,03,34,15.60
2012,09,16,03,35,15.60
2012,09,16,03,36,15.60
2012,09,16,03,37,15.70
2012,09,16,03,38,15.70
2012,09,16,03,39,15.70
2012,09,16,03,40,15.70
2012,09,16,03,41,15.70
2012,09,16,03,42,15.70
2012,09,16,03,43,15.80
2012,09,16,03,44,15.80
2012,09,16,03,45,15.80
2012,09,16,03,46,15.70
2012,09,16,03,47,15.70
2012,09,16,03,48,15.70
2012,09,16,03,49,15.70
2012,09,16,03,50,15.70
2012,09,16,03,51,15.70
2012,09,16,03,52,15.70
2012,09,16,03,53,15.70
2012,09,16,03,54,15.70
2012,09,16,03,55,15.70
2012,09,16,03,56,15.70
2012,09,16,03,57,15.70
2012,09,16,03,58,15.60
2012,09,16,03,59,15.60
2012,09,16,04,00,15.60
2012,09,16,04,01,15.60
2012,09,16,04,02,15.60
2012,09,16,04,03,15.60
2012,09,16,04,04,15.60
2012,09,16,04,05,15.60
2012,09,16,04,06,15.60
2012,09,16,04,07,15.60
2012,09,16,04,08,15.50
2012,09,16,04,09,15.50
2012,09,16,04,10,15.50
2012,09,16,04,11,15.50
2012,09,16,04,12,15.40
2012,09,16,04,13,15.40
2012,09,16,04,14,15.40
2012,09,16,04,15,15.30
2012,09,16,04,16,15.30
2012,09,16,04,17,15.30
2012,09,16,04,18,15.30
2012,09,16,04,19,15.20
2012,09,16,04,20,15.20
2012,09,16,04,21,15.20
2012,09,16,04,22,15.20
2012,09,16,04,23,15.10
2012,09,16,04,24,15.10
2012,09,16,04,25,15.10
2012,09,16,04,26,15.10
2012,09,16,04,27,15.10
2012,09,16,04,28,15.10
2012,09,16,04,29,15.10
2012,09,16,04,30,15.20
2012,09,16,04,31,15.20
2012,09,16,04,32,15.20
2012,09,16,04,33,15.30
2012,09,16,04,34,15.30
2012,09,16,04,35,15.30
2012,09,16,04,36,15.40
2012,09,16,04,37,15.40
2012,09,16,04,38,15.40
2012,09,16,04,39,15.40
2012,09,16,04,40,15.50
2012,09,16,04,41,15.50
2012,09,16,04,42,15.60
2012,09,16,04,43,15.60
2012,09,16,04,44,15.60
2012,09,16,04,45,15.60
2012,09,16,04,46,15.60
2012,09,16,04,47,15.60
2012,09,16,04,48,15.60
2012,09,16,04,49,15.60
2012,09,16,04,50,15.60
2012,09,16,04,51,15.60
2012,09,16,04,52,15.70
2012,09,16,04,53,15.60
2012,09,16,04,54,15.60
2012,09,16,04,55,15.60
2012,09,16,04,56,15.60
2012,09,16,04,57,15.60
2012,09,16,04,58,15.60
2012,09,16,04,59,15.60
2012,09,16,05,00,15.60
2012,09,16,05,01,15.50
2012,09,16,05,02,15.50
2012,09,16,05,03,15.40
2012,09,16,05,04,15.40
2012,09,16,05,05,15.40
2012,09,16,05,06,15.30
2012,09,16,05,07,15.30
2012,09,16,05,08,15.30
2012,09,16,05,09,15.30
2012,09,16,05,10,15.30
2012,09,16,05,11,15.30
2012,09,16,05,12,15.30
2012,09,16,05,13,15.30
2012,09,16,05,14,15.40
2012,09,16,05,15,15.40
2012,09,16,05,16,15.40
2012,09,16,05,17,15.40
2012,09,16,05,18,15.50
2012,09,16,05,19,15.60
2012,09,16,05,20,15.60
2012,09,16,05,21,15.60
2012,09,16,05,22,15.60
2012,09,16,05,23,15.70
2012,09,16,05,24,15.70
2012,09,16,05,25,15.70
2012,09,16,05,26,15.80
2012,09,16,05,27,15.80
2012,09,16,05,28,15.80
2012,09,16,05,29,15.80
2012,09,16,05,30,15.80
2012,09,16,05,31,15.80
2012,09,16,05,32,15.80
2012,09,16,05,33,15.80
2012,09,16,05,34,15.80
2012,09,16,05,35,15.80
2012,09,16,05,36,15.80
2012,09,16,05,37,15.80
2012,09,16,05,38,15.80
2012,09,16,05,39,15.80
2012,09,16,05,40,15.80
2012,09,16,05,41,15.80
2012,09,16,05,42,15.80
2012,09,16,05,43,15.80
2012,09,16,05,44,15.80
2012,09,16,05,45,15.70
2012,09,16,05,46,15.60
2012,09,16,05,47,15.60
2012,09,16,05,48,15.50
2012,09,16,05,49,15.50
2012,09,16,05,50,15.40
2012,09,16,05,51,15.40
2012,09,16,05,52,15.40
2012,09,16,05,53,15.30
2012,09,16,05,54,15.30
2012,09,16,05,55,15.30
2012,09,16,05,56,15.30
2012,09,16,05,57,15.30
2012,09,16,05,58,15.30
2012,09,16,05,59,15.20
2012,09,16,06,00,15.20
2012,09,16,06,01,15.20
2012,09,16,06,02,15.20
2012,09,16,06,03,15.10
2012,09,16,06,04,15.10
2012,09,16,06,05,15.10
2012,09,16,06,06,15.10
2012,09,16,06,07,15.10
2012,09,16,06,08,15.10
2012,09,16,06,09,15.10
2012,09,16,06,10,15.10
2012,09,16,06,11,15.10
2012,09,16,06,12,15.10
2012,09,16,06,13,15.10
2012,09,16,06,14,15.10
2012,09,16,06,15,15.10
2012,09,16,06,16,15.10
2012,09,16,06,17,15.10
2012,09,16,06,18,15.10
2012,09,16,06,19,15.10
2012,09,16,06,20,15.10
2012,09,16,06,21,15.10
2012,09,16,06,22,15.00
2012,09,16,06,23,15.00
2012,09,16,06,24,15.00
2012,09,16,06,25,14.90
2012,09,16,06,26,14.90
2012,09,16,06,27,14.90
2012,09,16,06,28,14.90
2012,09,16,06,29,14.90
2012,09,16,06,30,14.90
2012,09,16,06,31,14.90
2012,09,16,06,32,14.90
2012,09,16,06,33,14.80
2012,09,16,06,34,14.80
2012,09,16,06,35,14.80
2012,09,16,06,36,14.80
2012,09,16,06,37,14.80
2012,09,16,06,38,14.70
2012,09,16,06,39,14.70
2012,09,16,06,40,14.70
2012,09,16,06,41,14.80
2012,09,16,06,42,14.80
2012,09,16,06,43,14.80
2012,09,16,06,44,14.90
2012,09,16,06,45,14.90
2012,09,16,06,46,14.90
2012,09,16,06,47,15.00
2012,09,16,06,48,15.10
2012,09,16,06,49,15.10
2012,09,16,06,50,15.20
2012,09,16,06,51,15.20
2012,09,16,06,52,15.30
2012,09,16,06,53,15.30
2012,09,16,06,54,15.40
2012,09,16,06,55,15.40
2012,09,16,06,56,15.50
2012,09,16,06,57,15.50
2012,09,16,06,58,15.50
2012,09,16,06,59,15.60
2012,09,16,07,00,15.60
2012,09,16,07,01,15.60
2012,09,16,07,02,15.70
2012,09,16,07,03,15.70
2012,09,16,07,04,15.80
2012,09,16,07,05,15.80
2012,09,16,07,06,15.80
2012,09,16,07,07,15.80
2012,09,16,07,08,15.80
2012,09,16,07,09,15.80
2012,09,16,07,10,15.80
2012,09,16,07,11,15.80
2012,09,16,07,12,15.80
2012,09,16,07,13,15.90
2012,09,16,07,14,15.90
2012,09,16,07,15,15.90
2012,09,16,07,16,16.00
2012,09,16,07,17,16.00
2012,09,16,07,18,16.00
2012,09,16,07,19,16.10
2012,09,16,07,20,16.10
2012,09,16,07,21,16.20
2012,09,16,07,22,16.20
2012,09,16,07,23,16.20
2012,09,16,07,24,16.20
2012,09,16,07,25,16.20
2012,09,16,07,26,16.20
2012,09,16,07,27,16.20
2012,09,16,07,28,16.20
2012,09,16,07,29,16.20
2012,09,16,07,30,16.20
2012,09,16,07,31,16.20
2012,09,16,07,32,16.20
2012,09,16,07,33,16.20
2012,09,16,07,34,16.20
2012,09,16,07,35,16.20
2012,09,16,07,36,16.20
2012,09,16,07,37,16.20
2012,09,16,07,38,16.20
2012,09,16,07,39,16.20
2012,09,16,07,40,16.20
2012,09,16,07,41,16.20
2012,09,16,07,42,16.10
2012,09,16,07,43,16.10
2012,09,16,07,44,16.10
2012,09,16,07,45,16.10
2012,09,16,07,46,16.10
2012,09,16,07,47,16.20
2012,09,16,07,48,16.10
2012,09,16,07,49,16.10
2012,09,16,07,50,16.20
2012,09,16,07,51,16.20
2012,09,16,07,52,16.20
2012,09,16,07,53,16.20
2012,09,16,07,54,16.20
2012,09,16,07,55,16.20
2012,09,16,07,56,16.20
2012,09,16,07,57,16.20
2012,09,16,07,58,16.20
2012,09,16,07,59,16.20
2012,09,16,08,00,16.20
2012,09,16,08,01,16.30
2012,09,16,08,02,16.30
2012,09,16,08,03,16.30
2012,09,16,08,04,16.30
2012,09,16,08,05,16.40
2012,09,16,08,06,16.40
2012,09,16,08,07,16.40
2012,09,16,08,08,16.50
2012,09,16,08,09,16.50
2012,09,16,08,10,16.50
2012,09,16,08,11,16.60
2012,09,16,08,12,16.60
2012,09,16,08,13,16.60
2012,09,16,08,14,16.60
2012,09,16,08,15,16.60
2012,09,16,08,16,16.70
2012,09,16,08,17,16.70
2012,09,16,08,18,16.70
2012,09,16,08,19,16.70
2012,09,16,08,20,16.70
2012,09,16,08,21,16.80
2012,09,16,08,22,16.80
2012,09,16,08,23,16.80
2012,09,16,08,24,16.90
2012,09,16,08,25,16.90
2012,09,16,08,26,16.90
2012,09,16,08,27,17.00
2012,09,16,08,28,17.00
2012,09,16,08,29,17.10
2012,09,16,08,30,17.10
2012,09,16,08,31,17.10
2012,09,16,08,32,17.10
2012,09,16,08,33,17.20
2012,09,16,08,34,17.20
2012,09,16,08,35,17.20
2012,09,16,08,36,17.30
2012,09,16,08,37,17.30
2012,09,16,08,38,17.30
2012,09,16,08,39,17.30
2012,09,16,08,40,17.30
2012,09,16,08,41,17.40
2012,09,16,08,42,17.40
2012,09,16,08,43,17.40
2012,09,16,08,44,17.40
2012,09,16,08,45,17.40
2012,09,16,08,46,17.40
2012,09,16,08,47,17.40
2012,09,16,08,48,17.40
2012,09,16,08,49,17.40
2012,09,16,08,50,17.40
2012,09,16,08,51,17.40
2012,09,16,08,52,17.30
2012,09,16,08,53,17.30
2012,09,16,08,54,17.30
2012,09,16,08,55,17.30
2012,09,16,08,56,17.30
2012,09,16,08,57,17.30
2012,09,16,08,58,17.30
2012,09,16,08,59,17.30
2012,09,16,09,00,17.30
2012,09,16,09,01,17.30
2012,09,16,09,02,17.40
2012,09,16,09,03,17.40
2012,09,16,09,04,17.40
2012,09,16,09,05,17.40
2012,09,16,09,06,17.40
2012,09,16,09,07,17.40
2012,09,16,09,08,17.40
2012,09,16,09,09,17.40
2012,09,16,09,10,17.40
2012,09,16,09,11,17.40
2012,09,16,09,12,17.40
2012,09,16,09,13,17.40
2012,09,16,09,14,17.40
2012,09,16,09,15,17.40
2012,09,16,09,16,17.40
2012,09,16,09,17,17.40
2012,09,16,09,18,17.40
2012,09,16,09,19,17.40
2012,09,16,09,20,17.40
2012,09,16,09,21,17.40
2012,09,16,09,22,17.50
2012,09,16,09,23,17.50
2012,09,16,09,24,17.50
2012,09,16,09,25,17.50
2012,09,16,09,26,17.60
2012,09,16,09,27,17.60
2012,09,16,09,28,17.60
2012,09,16,09,29,17.60
2012,09,16,09,30,17.60
2012,09,16,09,31,17.60
2012,09,16,09,32,17.60
2012,09,16,09,33,17.70
2012,09,16,09,34,17.70
2012,09,16,09,35,17.70
2012,09,16,09,36,17.70
2012,09,16,09,37,17.70
2012,09,16,09,38,17.70
2012,09,16,09,39,17.80
2012,09,16,09,40,17.80
2012,09,16,09,41,17.80
2012,09,16,09,42,17.80
2012,09,16,09,43,17.80
2012,09,16,09,44,17.80
2012,09,16,09,45,17.90
2012,09,16,09,46,17.90
2012,09,16,09,47,18.00
2012,09,16,09,48,18.10
2012,09,16,09,49,18.10
2012,09,16,09,50,18.10
2012,09,16,09,51,18.10
2012,09,16,09,52,18.10
2012,09,16,09,53,18.20
2012,09,16,09,54,18.20
2012,09,16,09,55,18.20
2012,09,16,09,56,18.20
2012,09,16,09,57,18.20
2012,09,16,09,58,18.20
2012,09,16,09,59,18.30
2012,09,16,10,00,18.30
2012,09,16,10,01,18.30
2012,09,16,10,02,18.40
2012,09,16,10,03,18.40
2012,09,16,10,04,18.40
2012,09,16,10,05,18.40
2012,09,16,10,06,18.50
2012,09,16,10,07,18.50
2012,09,16,10,08,18.50
2012,09,16,10,09,18.60
2012,09,16,10,10,18.60
2012,09,16,10,11,18.60
2012,09,16,10,12,18.60
2012,09,16,10,13,18.60
2012,09,16,10,14,18.60
2012,09,16,10,15,18.70
2012,09,16,10,16,18.70
2012,09,16,10,17,18.70
2012,09,16,10,18,18.80
2012,09,16,10,19,18.80
2012,09,16,10,20,18.80
2012,09,16,10,21,18.80
2012,09,16,10,22,18.80
2012,09,16,10,23,18.80
2012,09,16,10,24,18.80
2012,09,16,10,25,18.80
2012,09,16,10,26,18.80
2012,09,16,10,27,18.70
2012,09,16,10,28,18.70
2012,09,16,10,29,18.70
2012,09,16,10,30,18.70
2012,09,16,10,31,18.60
2012,09,16,10,32,18.60
2012,09,16,10,33,18.60
2012,09,16,10,34,18.60
2012,09,16,10,35,18.60
2012,09,16,10,36,18.60
2012,09,16,10,37,18.60
2012,09,16,10,38,18.60
2012,09,16,10,39,18.60
2012,09,16,10,40,18.60
2012,09,16,10,41,18.60
2012,09,16,10,42,18.60
2012,09,16,10,43,18.60
2012,09,16,10,44,18.60
2012,09,16,10,45,18.60
2012,09,16,10,46,18.60
2012,09,16,10,47,18.60
2012,09,16,10,48,18.60
2012,09,16,10,49,18.60
2012,09,16,10,50,18.60
2012,09,16,10,51,18.60
2012,09,16,10,52,18.60
2012,09,16,10,53,18.60
2012,09,16,10,54,18.60
2012,09,16,10,55,18.50
2012,09,16,10,56,18.50
2012,09,16,10,57,18.50
2012,09,16,10,58,18.60
2012,09,16,10,59,18.60
2012,09,16,11,00,18.70
2012,09,16,11,01,18.70
2012,09,16,11,02,18.70
2012,09,16,11,03,18.80
2012,09,16,11,04,18.80
2012,09,16,11,05,18.80
2012,09,16,11,06,18.80
2012,09,16,11,07,18.80
2012,09,16,11,08,18.80
2012,09,16,11,09,18.80
2012,09,16,11,10,18.90
2012,09,16,11,11,18.90
2012,09,16,11,12,18.90
2012,09,16,11,13,19.00
2012,09,16,11,14,19.00
2012,09,16,11,15,19.00
2012,09,16,11,16,19.00
2012,09,16,11,17,19.00
2012,09,16,11,18,19.00
2012,09,16,11,19,19.10
2012,09,16,11,20,19.10
2012,09,16,11,21,19.20
2012,09,16,11,22,19.20
2012,09,16,11,23,19.20
2012,09,16,11,24,19.30
2012,09,16,11,25,19.30
2012,09,16,11,26,19.40
2012,09,16,11,27,19.40
2012,09,16,11,28,19.50
2012,09,16,11,29,19.50
2012,09,16,11,30,19.50
2012,09,16,11,31,19.50
2012,09,16,11,32,19.60
2012,09,16,11,33,19.60
2012,09,16,11,34,19.60
2012,09,16,11,35,19.70
2012,09,16,11,36,19.70
2012,09,16,11,37,19.80
2012,09,16,11,38,19.80
2012,09,16,11,39,19.80
2012,09,16,11,40,19.80
2012,09,16,11,41,19.80
2012,09,16,11,42,19.80
2012,09,16,11,43,19.80
2012,09,16,11,44,19.80
2012,09,16,11,45,19.90
2012,09,16,11,46,20.00
2012,09,16,11,47,20.00
2012,09,16,11,48,20.10
2012,09,16,11,49,20.10
2012,09,16,11,50,20.10
2012,09,16,11,51,20.20
2012,09,16,11,52,20.20
2012,09,16,11,53,20.20
2012,09,16,11,54,20.20
2012,09,16,11,55,20.20
2012,09,16,11,56,20.20
2012,09,16,11,57,20.20
2012,09,16,11,58,20.20
2012,09,16,11,59,20.20
2012,09,16,12,00,20.20
2012,09,16,12,01,20.20
2012,09,16,12,02,20.20
2012,09,16,12,03,20.20
2012,09,16,12,04,20.20
2012,09,16,12,05,20.20
2012,09,16,12,06,20.20
2012,09,16,12,07,20.30
2012,09,16,12,08,20.30
2012,09,16,12,09,20.30
2012,09,16,12,10,20.30
2012,09,16,12,11,20.40
2012,09,16,12,12,20.40
2012,09,16,12,13,20.40
2012,09,16,12,14,20.40
2012,09,16,12,15,20.40
2012,09,16,12,16,20.40
2012,09,16,12,17,20.40
2012,09,16,12,18,20.40
2012,09,16,12,19,20.40
2012,09,16,12,20,20.50
2012,09,16,12,21,20.50
2012,09,16,12,22,20.50
2012,09,16,12,23,20.50
2012,09,16,12,24,20.50
2012,09,16,12,25,20.50
2012,09,16,12,26,20.40
2012,09,16,12,27,20.40
2012,09,16,12,28,20.40
2012,09,16,12,29,20.30
2012,09,16,12,30,20.30
2012,09,16,12,31,20.30
2012,09,16,12,32,20.30
2012,09,16,12,33,20.30
2012,09,16,12,34,20.30
2012,09,16,12,35,20.40
2012,09,16,12,36,20.30
2012,09,16,12,37,20.30
2012,09,16,12,38,20.30
2012,09,16,12,39,20.40
2012,09,16,12,40,20.40
2012,09,16,12,41,20.50
2012,09,16,12,42,20.50
2012,09,16,12,43,20.50
2012,09,16,12,44,20.50
2012,09,16,12,45,20.60
2012,09,16,12,46,20.60
2012,09,16,12,47,20.60
2012,09,16,12,48,20.70
2012,09,16,12,49,20.70
2012,09,16,12,50,20.70
2012,09,16,12,51,20.80
2012,09,16,12,52,20.80
2012,09,16,12,53,20.80
2012,09,16,12,54,20.80
2012,09,16,12,55,20.90
2012,09,16,12,56,20.90
2012,09,16,12,57,21.00
2012,09,16,12,58,21.10
2012,09,16,12,59,21.10
2012,09,16,13,00,21.20
2012,09,16,13,01,21.20
2012,09,16,13,02,21.20
2012,09,16,13,03,21.30
2012,09,16,13,04,21.30
2012,09,16,13,05,21.40
2012,09,16,13,06,21.40
2012,09,16,13,07,21.50
2012,09,16,13,08,21.50
2012,09,16,13,09,21.60
2012,09,16,13,10,21.60
2012,09,16,13,11,21.70
2012,09,16,13,12,21.70
2012,09,16,13,13,21.70
2012,09,16,13,14,21.80
2012,09,16,13,15,21.80
2012,09,16,13,16,21.90
2012,09,16,13,17,21.90
2012,09,16,13,18,21.90
2012,09,16,13,19,22.00
2012,09,16,13,20,22.00
2012,09,16,13,21,22.10
2012,09,16,13,22,22.20
2012,09,16,13,23,22.20
2012,09,16,13,24,22.20
2012,09,16,13,25,22.20
2012,09,16,13,26,22.20
2012,09,16,13,27,22.20
2012,09,16,13,28,22.20
2012,09,16,13,29,22.20
2012,09,16,13,30,22.30
2012,09,16,13,31,22.30
2012,09,16,13,32,22.20
2012,09,16,13,33,22.20
2012,09,16,13,34,22.20
2012,09,16,13,35,22.30
2012,09,16,13,36,22.30
2012,09,16,13,37,22.30
2012,09,16,13,38,22.30
2012,09,16,13,39,22.30
2012,09,16,13,40,22.30
2012,09,16,13,41,22.40
2012,09,16,13,42,22.40
2012,09,16,13,43,22.40
2012,09,16,13,44,22.40
2012,09,16,13,45,22.40
2012,09,16,13,46,22.50
2012,09,16,13,47,22.50
2012,09,16,13,48,22.60
2012,09,16,13,49,22.70
2012,09,16,13,50,22.70
2012,09,16,13,51,22.70
2012,09,16,13,52,22.70
2012,09,16,13,53,22.70
2012,09,16,13,54,22.70
2012,09,16,13,55,22.70
2012,09,16,13,56,22.60
2012,09,16,13,57,22.60
2012,09,16,13,58,22.60
2012,09,16,13,59,22.60
2012,09,16,14,00,22.60
2012,09,16,14,01,22.60
2012,09,16,14,02,22.60
2012,09,16,14,03,22.70
2012,09,16,14,04,22.70
2012,09,16,14,05,22.70
2012,09,16,14,06,22.70
2012,09,16,14,07,22.70
2012,09,16,14,08,22.70
2012,09,16,14,09,22.70
2012,09,16,14,10,22.80
2012,09,16,14,11,22.80
2012,09,16,14,12,22.90
2012,09,16,14,13,22.90
2012,09,16,14,14,23.00
2012,09,16,14,15,23.00
2012,09,16,14,16,23.10
2012,09,16,14,17,23.20
2012,09,16,14,18,23.20
2012,09,16,14,19,23.20
2012,09,16,14,20,23.30
2012,09,16,14,21,23.30
2012,09,16,14,22,23.30
2012,09,16,14,23,23.20
2012,09,16,14,24,23.20
2012,09,16,14,25,23.20
2012,09,16,14,26,23.20
2012,09,16,14,27,23.20
2012,09,16,14,28,23.20
2012,09,16,14,29,23.30
2012,09,16,14,30,23.30
2012,09,16,14,31,23.30
2012,09,16,14,32,23.30
2012,09,16,14,33,23.30
2012,09,16,14,34,23.30
2012,09,16,14,35,23.30
2012,09,16,14,36,23.30
2012,09,16,14,37,23.30
2012,09,16,14,38,23.40
2012,09,16,14,39,23.40
2012,09,16,14,40,23.50
2012,09,16,14,41,23.50
2012,09,16,14,42,23.50
2012,09,16,14,43,23.60
2012,09,16,14,44,23.60
2012,09,16,14,45,23.60
2012,09,16,14,46,23.70
2012,09,16,14,47,23.70
2012,09,16,14,48,23.70
2012,09,16,14,49,23.60
2012,09,16,14,50,23.60
2012,09,16,14,51,23.60
2012,09,16,14,52,23.60
2012,09,16,14,53,23.60
2012,09,16,14,54,23.60
2012,09,16,14,55,23.60
2012,09,16,14,56,23.60
2012,09,16,14,57,23.70
2012,09,16,14,58,23.70
2012,09,16,14,59,23.70
2012,09,16,15,00,23.80
2012,09,16,15,01,23.80
2012,09,16,15,02,23.80
2012,09,16,15,03,23.80
2012,09,16,15,04,23.80
2012,09,16,15,05,23.80
2012,09,16,15,06,23.90
2012,09,16,15,07,23.90
2012,09,16,15,08,24.00
2012,09,16,15,09,24.00
2012,09,16,15,10,24.10
2012,09,16,15,11,24.10
2012,09,16,15,12,24.10
2012,09,16,15,13,24.20
2012,09,16,15,14,24.20
2012,09,16,15,15,24.20
2012,09,16,15,16,24.10
2012,09,16,15,17,24.10
2012,09,16,15,18,24.10
2012,09,16,15,19,24.10
2012,09,16,15,20,24.10
2012,09,16,15,21,24.10
2012,09,16,15,22,24.10
2012,09,16,15,23,24.10
2012,09,16,15,24,24.00
2012,09,16,15,25,24.00
2012,09,16,15,26,24.10
2012,09,16,15,27,24.10
2012,09,16,15,28,24.10
2012,09,16,15,29,24.10
2012,09,16,15,30,24.10
2012,09,16,15,31,24.20
2012,09,16,15,32,24.20
2012,09,16,15,33,24.20
2012,09,16,15,34,24.20
2012,09,16,15,35,24.30
2012,09,16,15,36,24.30
2012,09,16,15,37,24.30
2012,09,16,15,38,24.30
2012,09,16,15,39,24.30
2012,09,16,15,40,24.40
2012,09,16,15,41,24.40
2012,09,16,15,42,24.40
2012,09,16,15,43,24.40
2012,09,16,15,44,24.40
2012,09,16,15,45,24.40
2012,09,16,15,46,24.40
2012,09,16,15,47,24.40
2012,09,16,15,48,24.40
2012,09,16,15,49,24.40
2012,09,16,15,50,24.40
2012,09,16,15,51,24.40
2012,09,16,15,52,24.40
2012,09,16,15,53,24.40
2012,09,16,15,54,24.50
2012,09,16,15,55,24.50
2012,09,16,15,56,24.60
2012,09,16,15,57,24.60
2012,09,16,15,58,24.50
2012,09,16,15,59,24.50
2012,09,16,16,00,24.40
2012,09,16,16,01,24.40
2012,09,16,16,02,24.50
2012,09,16,16,03,24.50
2012,09,16,16,04,24.60
2012,09,16,16,05,24.60
2012,09,16,16,06,24.70
2012,09,16,16,07,24.70
2012,09,16,16,08,24.70
2012,09,16,16,09,24.70
2012,09,16,16,10,24.70
2012,09,16,16,11,24.60
2012,09,16,16,12,24.60
2012,09,16,16,13,24.60
2012,09,16,16,14,24.60
2012,09,16,16,15,24.50
2012,09,16,16,16,24.50
2012,09,16,16,17,24.50
2012,09,16,16,18,24.40
2012,09,16,16,19,24.40
2012,09,16,16,20,24.40
2012,09,16,16,21,24.40
2012,09,16,16,22,24.40
2012,09,16,16,23,24.40
2012,09,16,16,24,24.40
2012,09,16,16,25,24.40
2012,09,16,16,26,24.40
2012,09,16,16,27,24.40
2012,09,16,16,28,24.40
2012,09,16,16,29,24.40
2012,09,16,16,30,24.40
2012,09,16,16,31,24.50
2012,09,16,16,32,24.50
2012,09,16,16,33,24.50
2012,09,16,16,34,24.50
2012,09,16,16,35,24.50
2012,09,16,16,36,24.50
2012,09,16,16,37,24.50
2012,09,16,16,38,24.50
2012,09,16,16,39,24.40
2012,09,16,16,40,24.40
2012,09,16,16,41,24.40
2012,09,16,16,42,24.40
2012,09,16,16,43,24.30
2012,09,16,16,44,24.30
2012,09,16,16,45,24.30
2012,09,16,16,46,24.30
2012,09,16,16,47,24.30
2012,09,16,16,48,24.30
2012,09,16,16,49,24.30
2012,09,16,16,50,24.30
2012,09,16,16,51,24.30
2012,09,16,16,52,24.30
2012,09,16,16,53,24.30
2012,09,16,16,54,24.20
2012,09,16,16,55,24.20
2012,09,16,16,56,24.20
2012,09,16,16,57,24.20
2012,09,16,16,58,24.20
2012,09,16,16,59,24.20
2012,09,16,17,00,24.20
2012,09,16,17,01,24.20
2012,09,16,17,02,24.20
2012,09,16,17,03,24.20
2012,09,16,17,04,24.20
2012,09,16,17,05,24.10
2012,09,16,17,06,24.10
2012,09,16,17,07,24.10
2012,09,16,17,08,24.10
2012,09,16,17,09,24.10
2012,09,16,17,10,24.10
2012,09,16,17,11,24.10
2012,09,16,17,12,24.10
2012,09,16,17,13,24.10
2012,09,16,17,14,24.10
2012,09,16,17,15,24.00
2012,09,16,17,16,23.90
2012,09,16,17,17,23.90
2012,09,16,17,18,23.90
2012,09,16,17,19,23.80